Location: Unspecified
(29.9680°N, 0.0000°E)
Time: 16:56:32
(UTC+00:00)

Vanguard 1 Rocket - Pass Details

Date: 17 June 2019
Orbit: 651 x 4225 km, 34.3° (Epoch: 21 July)

Event Time Altitude Azimuth Distance (km) Brightness Sun altitude
Rises 21:07:51 0° 277° (W) 5,250 12.1 -22.4°
Reaches altitude 10° 21:12:08 10° 281° (W) 3,702 11.2 -23.0°
Maximum altitude 21:20:26 60° 360° (N) 1,093 7.9 -24.2°
Enters shadow 21:23:08 29° 69° (ENE) 1,472 8.2 -24.6°
